This demonstration page uses our WeatherBlox Daily Observations layout. Learn more.

Left ArrowRight Arrow

Hourly Observations for June 28, 2019

Temp ( °F °C ) Dew Point ( °F °C ) Humidity (%) Winds ( mph kmh ) Pressure ( in mb ) Visibility ( mi km ) Precip ( " mm )
12:59 am 00:59 Clear 75 23.9 69 20.6 82 82 S 5 7 30.17 1022 10 16 0.00 0.00
1:59 am 01:59 Clear 78 25.6 69 20.6 74 74 S 5 7 30.17 1022 10 16 0.00 0.00
2:59 am 02:59 Partly Cloudy 78 25.6 69 20.6 74 74 SSW 6 9 30.16 1021 10 16 0.00 0.00
3:59 am 03:59 Mostly Clear 77 25 67 19.4 71 71 SSW 6 9 30.16 1021 10 16 0.00 0.00
4:59 am 04:59 Mostly Clear 75 23.9 67 19.4 76 76 SW 5 7 30.16 1021 9 14 0.00 0.00
5:59 am 05:59 Partly Cloudy 75 23.9 67 19.4 76 76 SW 3 6 30.16 1021 8 13 0.00 0.00
6:59 am 06:59 Partly Cloudy 77 25 68 20 74 74 SW 5 7 30.17 1022 8 13 0.00 0.00
7:59 am 07:59 Partly Cloudy 80 26.7 69 20.6 69 69 W 6 9 30.18 1022 8 13 0.00 0.00
8:59 am 08:59 Partly Cloudy 82 27.8 70 21.1 67 67 W 5 7 30.18 1022 8 13 0.00 0.00
9:59 am 09:59 Partly Cloudy 86 30 70 21.1 59 59 VRB 5 7 30.19 1022 9 14 0.00 0.00
10:59 am 10:59 Partly Cloudy 88 31.1 70 21.1 55 55 WSW 6 9 30.19 1022 9 14 0.00 0.00
11:59 am 11:59 Partly Cloudy 90 32.2 68 20 48 48 W 8 13 30.19 1022 10 16 0.00 0.00
12:59 pm 12:59 Partly Cloudy 93 33.9 66 18.9 41 41 WNW 8 13 30.18 1022 10 16 0.00 0.00
1:59 pm 13:59 Partly Cloudy 94 34.4 66 18.9 40 40 NW 8 13 30.16 1021 10 16 0.00 0.00
2:59 pm 14:59 Partly Cloudy 95 35 66 18.9 39 39 WNW 6 9 30.14 1021 10 16 0.00 0.00
3:34 pm 15:34 Partly Cloudy with Thunderstorms 94 34.4 65 18.3 38 38 ENE 8 13 30.14 1021 10 16 0.00 0.00
3:59 pm 15:59 Partly Cloudy with Thunderstorms 91 32.8 71 21.7 52 52 SSE 12 19 30.13 1020 10 16 0.00 0.00
4:29 pm 16:29 Partly Cloudy 88 31.1 69 20.6 54 54 SSE 7 11 30.14 1021 10 16 0.00 0.00
4:59 pm 16:59 Mostly Cloudy 88 31.1 64 17.8 45 45 SSE 7 11 30.15 1021 10 16 0.00 0.00
5:59 pm 17:59 Mostly Cloudy 84 28.9 69 20.6 61 61 S 9 15 30.14 1021 10 16 0.00 0.00
6:59 pm 18:59 Mostly Cloudy 84 28.9 68 20 59 59 S 6 9 30.14 1021 10 16 0.00 0.00
7:59 pm 19:59 Mostly Cloudy 81 27.2 68 20 65 65 SSW 7 11 30.13 1020 10 16 0.00 0.00
8:59 pm 20:59 Mostly Cloudy 80 26.7 66 18.9 62 62 S 5 7 30.14 1021 10 16 0.00 0.00
9:59 pm 21:59 Mostly Cloudy 78 25.6 67 19.4 69 69 SSW 5 7 30.16 1021 10 16 0.00 0.00
10:59 pm 22:59 Mostly Cloudy 77 25 68 20 74 74 SSW 5 7 30.14 1021 10 16 0.00 0.00
11:59 pm 23:59 Mostly Cloudy 78 25.6 68 20 71 71 WSW 3 6 30.16 1021 10 16 0.00 0.00

Powered by AerisWeather